Flag for Germany Weather past 2 weeks in Königswinter, North Rhine-Westphalia, Germany

Now
64 °F

Partly sunny.


Feels Like: 64 °F
Forecast: 53 / 70 °F
Wind: 5 mph from North

Location: Bonn-Hangelar

Current Time: May 23, 2015 at 2:46:52 PM

Latest Report: May 23, 2015 at 2:00 PM


Visibility: 19 mi

Pressure: 30.14 "Hg

Humidity: 58%

Dew point: 48 °F

Location of KönigswinterLocation

Historic Weather in Königswinter — Graph

°F

Königswinter temperature yesterday

Maximum temperature yesterday: 65 °F (at 6:00 PM)
Minimum temperature yesterday: 47 °F (at 1:00 AM)
Average temperature yesterday: 55 °F

Past Weeks' High & Low Weather Summary

 TemperatureHumidityPressure
High77 °F (May 11, 6:00 PM)100% (May 15, 6:00 AM)30.37 "Hg (May 15, 6:00 AM)
Low39 °F (May 21, 5:00 AM)36% (May 13, 5:00 PM)29.67 "Hg (May 18, 8:00 PM)
Average54 °F73%30.09 "Hg
* Reported May 8 2:00 PM — May 23 2:00 PM, Königswinter, Weather by CustomWeather, © 2015

Note: Actual official high and low records may vary slightly from our data, if they occured in-between our weather recording intervals... More about our weather records

Advertising

Königswinter weather history for previous 24 hours

 ConditionsComfort  
Time TempWeatherWind HumidityBarometerVisibility
2:00 PM
Sat, May 23
64 °FPartly sunny.5 mph58%30.14 "Hg19 mi
1:00 PM63 °FOvercast.2 mph55%30.16 "Hg14 mi
12:00 PM61 °FPassing clouds.3 mph63%30.17 "Hg12 mi
11:00 AM57 °FOvercast.3 mph72%30.19 "Hg11 mi
10:00 AM56 °FOvercast.2 mph77%30.20 "Hg12 mi
9:00 AM55 °FOvercast.1 mph81%30.19 "Hg12 mi
8:00 AM53 °FOvercast.2 mph88%30.20 "Hg11 mi
7:00 AM51 °FOvercast.2 mph85%30.19 "Hg11 mi
6:00 AM49 °FOvercast.2 mph83%30.19 "Hg11 mi
5:00 AM49 °FPassing clouds.2 mph83%30.19 "Hg7 mi
4:00 AM48 °FClear.2 mph85%30.20 "Hg7 mi
3:00 AM50 °FClear.1 mph78%30.22 "Hg7 mi
2:00 AM53 °FClear.2 mph76%30.22 "Hg7 mi
1:00 AM54 °FClear.3 mph76%30.22 "Hg7 mi
12:00 AM54 °FClear.3 mph70%30.23 "Hg9 mi
11:00 PM
Fri, May 22
53 °FClear.1 mph72%30.22 "Hg13 mi
10:00 PM55 °FClear.1 mph71%30.22 "Hg16 mi
9:00 PM60 °FSunny.2 mph60%30.21 "Hg18 mi
8:00 PM64 °FScattered clouds.2 mph46%30.20 "Hg25 mi
7:00 PM65 °FScattered clouds.2 mph44%30.20 "Hg25 mi
6:00 PM65 °FOvercast.3 mph45%30.21 "Hg17 mi
5:00 PMN/APassing clouds.6 mphN/AN/A19 mi
4:00 PM64 °FScattered clouds.1 mph44%30.24 "Hg31 mi
3:00 PM63 °FScattered clouds.3 mph47%30.26 "Hg31 mi
2:00 PM63 °FScattered clouds.2 mph53%30.28 "Hg31 mi
Weather by CustomWeather, © 2015

See weather overviewHow to use our weather pages